Back to catalog

SL-6 R/B(2)

AliveHEO
NORAD 22952·ROCKET BODY·🇷🇺 Russia

Launched Dec 22, 1993 from Plesetsk Cosmodrome

Loading…

Next Passes (next 24 hours)

TLE

FreshSource: Space-Track

Epoch: Sep 12, 2026, 23:33 UTC

1 22952U 93079D   26255.98157482 -.00000280  00000-0  00000-0 0  9993
2 22952  64.4866 213.1279 6527697 262.5739  24.4508  2.06893475246589

Track SL-6 R/B(2) in real time with AllMySat

Download on the App Store